Location: Carbonear
(47.7333°N, 53.2500°W)
Time: 03:17:05
(UTC+00:00)

PRISM - Visible Passes

Search period start: 10 December 2022 00:00
Search period end: 20 December 2022 00:00
Orbit: 551 x 572 km, 98.2° (Epoch: 09 December)

Date Brightness Start Highest point End Pass type
(mag) Time Alt. Az. Time Alt. Az. Time Alt. Az.
10 Dec ? 08:06:19 10° E 08:06:32 10° E 08:06:46 10° E visible
10 Dec ? 09:37:54 10° NNE 09:42:00 84° WNW 09:46:04 10° SSW visible
10 Dec ? 20:27:21 10° S 20:31:21 79° WSW 20:35:24 10° NNW visible
11 Dec ? 09:37:08 10° NNE 09:41:15 86° WNW 09:45:19 10° SSW visible
11 Dec ? 20:26:35 10° SSE 20:30:34 81° WSW 20:34:38 10° NNW visible
12 Dec ? 09:36:22 10° NNE 09:40:28 88° WNW 09:44:32 10° SSW visible
12 Dec ? 20:25:48 10° SSE 20:29:48 83° WSW 20:33:52 10° NNW visible
13 Dec ? 09:35:34 10° NNE 09:39:41 90° NNW 09:43:45 10° SSW visible
13 Dec ? 20:25:00 10° SSE 20:29:00 86° WSW 20:33:04 10° NNW visible
14 Dec ? 09:34:46 10° NNE 09:38:52 88° ESE 09:42:57 10° SSW visible
14 Dec ? 20:24:11 10° SSE 20:28:11 88° WSW 20:32:16 10° NNW visible
15 Dec ? 09:33:57 10° NNE 09:38:04 86° ESE 09:42:08 10° SSW visible
15 Dec ? 20:23:21 10° SSE 20:27:22 90° N 20:31:26 10° NNW visible
16 Dec ? 09:33:07 10° NNE 09:37:13 83° ESE 09:41:18 10° SSW visible
16 Dec ? 20:22:30 10° SSE 20:26:31 88° ENE 20:30:36 10° NNW visible
17 Dec ? 09:32:16 10° NNE 09:36:22 81° ESE 09:40:26 10° SSW visible
17 Dec ? 20:21:39 10° SSE 20:25:40 85° ENE 20:29:44 10° NNW visible
18 Dec ? 09:31:24 10° NNE 09:35:30 79° ESE 09:39:34 10° S visible
18 Dec ? 20:20:46 10° SSE 20:24:47 83° ENE 20:28:52 10° NNW visible
19 Dec ? 09:30:32 10° NNE 09:34:38 77° ESE 09:38:41 10° S visible
19 Dec ? 20:19:53 10° SSE 20:23:54 81° ENE 20:27:59 10° NNW visible
19 Dec ? 21:58:45 10° W 21:59:20 10° W 21:59:56 10° W visible
